This is the latest recevied weather packets stored in our database for station/object EA3HRE-10. If no packets are shown the sender has not sent any weather packets the latest 10 day(s).
| Time | Temp. | Humidity | Pressure | Rain* | Wind** | Luminosity | Snow |
|---|---|---|---|---|---|---|---|
| 1777726300 | 24.44° C | 44% | 1022.3 hPa | - | - | - | - |
| 1777725400 | 25° C | 43% | 1022.1 hPa | - | - | - | - |
| 1777724500 | 25° C | 44% | 1022.1 hPa | - | - | - | - |
| 1777723600 | 23.89° C | 46% | 1022.3 hPa | - | - | - | - |
| 1777722700 | 23.89° C | 48% | 1022.3 hPa | - | - | - | - |
| 1777721799 | 23.89° C | 54% | 1022.5 hPa | - | - | - | - |
| 1777720912 | 23.89° C | 50% | 1022.7 hPa | - | - | - | - |
| 1777720899 | 23.89° C | 50% | 1022.7 hPa | - | - | - | - |
| 1777720012 | 23.89° C | 43% | 1022.8 hPa | - | - | - | - |
| 1777719999 | 23.89° C | 43% | 1022.8 hPa | - | - | - | - |
| 1777719104 | 23.89° C | 43% | 1022.8 hPa | - | - | - | - |
| 1777718208 | 23.33° C | 44% | 1022.6 hPa | - | - | - | - |
| 1777718196 | 23.33° C | 44% | 1022.6 hPa | - | - | - | - |
| 1777717296 | 23.33° C | 43% | 1022.8 hPa | - | - | - | - |
| 1777716396 | 23.33° C | 42% | 1022.9 hPa | - | - | - | - |
| 1777715496 | 23.89° C | 42% | 1023 hPa | - | - | - | - |
| 1777714596 | 23.89° C | 43% | 1023.1 hPa | - | - | - | - |
| 1777713695 | 23.33° C | 45% | 1023.3 hPa | - | - | - | - |
| 1777712795 | 23.33° C | 44% | 1023.3 hPa | - | - | - | - |
| 1777711909 | 23.33° C | 47% | 1023.2 hPa | - | - | - | - |
| 1777711895 | 23.33° C | 47% | 1023.2 hPa | - | - | - | - |
| 1777711008 | 23.33° C | 48% | 1023.2 hPa | - | - | - | - |
| 1777710995 | 23.33° C | 48% | 1023.2 hPa | - | - | - | - |
| 1777710109 | 23.33° C | 48% | 1023.1 hPa | - | - | - | - |
| 1777710095 | 23.33° C | 48% | 1023.1 hPa | - | - | - | - |
* Rain since midnight (hover to see other rain measurements)
** Current wind speed in m/s (hover to see current wind gust speed)